New Bedford, MA

6:09 AM EDT on May 27, 2017 (GMT -0400)
New Bedford Regional

Weather History for KEWB - January, 2013

Change the Weather History Date:

Sunday, January 13, 2013

  Actual Average Record
Temperature  
Mean Temperature 48 °F -  
Max Temperature 53 °F 36 °F 59 °F (2005)
Min Temperature 42 °F 20 °F 5 °F (1981)
Degree Days  
Heating Degree Days 18    
Moisture  
Dew Point 46 °F    
Average Humidity 97    
Maximum Humidity 100    
Minimum Humidity 89    
Precipitation  
Precipitation 0.02 in - - ()
Sea Level Pressure  
Sea Level Pressure 30.10 in    
Wind  
Wind Speed 3 mph (SSW)    
Max Wind Speed 10 mph    
Max Gust Speed -    
Visibility 2 miles    
Events Fog    
Averages and records for this station are not official NWS values.
T = Trace of Precipitation, MM = Missing Value Source: NWS Daily Summary

Daily Weather History Graph

Daily Weather History Graph

Search for Another Location

Airport or City:

Trip Planner

Search our weather history database for the weather conditions in past years. The results will help you decide how hot, cold, wet, or windy it might be!

Date:

Astronomy

Jan. 13, 2013 Rise Set
Actual Time 7:09 AM EST 4:36 PM EST
Civil Twilight 6:38 AM EST 5:07 PM EST
Nautical Twilight 6:04 AM EST 5:41 PM EST
Astronomical Twilight 5:30 AM EST 6:14 PM EST
Moon 8:03 AM EST (1/13) 7:14 PM EST (1/13)
Length of Visible Light 10h 28m
Length of Day
9h 27m
Waxing Crescent, 5% of the Moon is Illuminated
Jan 13
Waxing Crescent
Jan 18
First Quarter
Jan 26
Full
Feb 3
Last Quarter
Feb 10
New

Hourly Weather History & Observations

Time (EST) Temp. Windchill Dew Point Humidity Pressure Visibility Wind Dir Wind Speed Gust Speed Precip Events Conditions
12:53 AM 43.0 °F - 42.1 °F 97% 30.15 in 0.8 mi Calm Calm - N/A   Mist
1:53 AM 43.0 °F - 42.1 °F 97% 30.15 in 0.5 mi Calm Calm - N/A Fog Fog
2:25 AM 42.8 °F - 42.8 °F 100% 30.15 in 0.5 mi Calm Calm - N/A Fog Fog
2:50 AM 42.8 °F - 42.8 °F 100% 30.15 in 0.5 mi Calm Calm - N/A Fog Fog
2:53 AM 43.0 °F - 42.1 °F 97% 30.14 in 0.5 mi Calm Calm - N/A Fog Fog
3:26 AM 42.8 °F - 42.8 °F 100% 30.13 in 0.2 mi Calm Calm - N/A Fog Fog
3:53 AM 43.0 °F - 42.1 °F 97% 30.14 in 0.2 mi Calm Calm - N/A Fog Fog
4:02 AM 42.8 °F - 42.8 °F 100% 30.13 in 0.2 mi Calm Calm - N/A Fog Fog
4:28 AM 42.8 °F - 42.8 °F 100% 30.13 in 0.5 mi Calm Calm - N/A Fog Fog
4:53 AM 44.1 °F - 42.1 °F 93% 30.12 in 0.5 mi Calm Calm - N/A Fog Fog
5:13 AM 42.8 °F - 42.8 °F 100% 30.13 in 0.2 mi Calm Calm - N/A Fog Fog
5:24 AM 42.8 °F - 42.8 °F 100% 30.12 in 0.2 mi Calm Calm - N/A Fog Fog
5:42 AM 44.6 °F 41.4 °F 42.8 °F 93% 30.10 in 0.2 mi ESE 5.8 mph - N/A Fog Fog
5:50 AM 44.6 °F 41.4 °F 42.8 °F 93% 30.10 in 0.5 mi SE 5.8 mph - N/A Fog Fog
5:53 AM 43.0 °F 39.5 °F 43.0 °F 100% 30.10 in 0.5 mi SE 5.8 mph - N/A Fog Fog
6:02 AM 42.8 °F 41.1 °F 42.8 °F 100% 30.11 in 0.2 mi SE 3.5 mph - N/A Fog Fog
6:40 AM 42.8 °F - 42.8 °F 100% 30.13 in 0.5 mi Calm Calm - N/A Fog Fog
6:48 AM 42.8 °F - 42.8 °F 100% 30.13 in 0.2 mi Calm Calm - N/A Fog Fog
6:53 AM 43.0 °F - 43.0 °F 100% 30.13 in 0.2 mi Calm Calm - N/A Fog Fog
7:13 AM 42.8 °F - 42.8 °F 100% 30.14 in 0.2 mi Calm Calm - N/A Fog Fog
7:53 AM 44.1 °F - 43.0 °F 96% 30.15 in 0.2 mi Calm Calm - N/A Fog Fog
8:44 AM 44.6 °F 43.1 °F 44.6 °F 100% 30.16 in 0.2 mi SW 3.5 mph - 0.01 in Fog Fog
8:53 AM 45.0 °F 41.8 °F 44.1 °F 97% 30.17 in 0.5 mi SSW 5.8 mph - 0.01 in Fog Fog
9:16 AM 44.6 °F 43.1 °F 44.6 °F 100% 30.16 in 0.2 mi SSW 3.5 mph - N/A Fog Fog
9:28 AM 46.4 °F 44.3 °F 44.6 °F 93% 30.16 in 0.5 mi South 4.6 mph - N/A Fog Fog
9:53 AM 46.9 °F - 46.0 °F 97% 30.15 in 0.8 mi South 5.8 mph - N/A   Overcast
10:04 AM 46.4 °F 42.9 °F 46.4 °F 100% 30.15 in 1.5 mi SSW 6.9 mph - N/A   Overcast
10:09 AM 46.4 °F 42.4 °F 46.4 °F 100% 30.16 in 3.0 mi SSW 8.1 mph - N/A   Overcast
10:53 AM 48.0 °F - 46.0 °F 93% 30.15 in 10.0 mi SSW 6.9 mph - N/A   Overcast
11:43 AM 50.0 °F - 48.2 °F 94% 30.13 in 10.0 mi SSW 6.9 mph - N/A   Overcast
11:53 AM 50.0 °F - 48.0 °F 93% 30.13 in 10.0 mi SSW 9.2 mph - N/A   Overcast
12:53 PM 53.1 °F - 50.0 °F 89% 30.11 in 10.0 mi SSW 10.4 mph - N/A   Overcast
1:53 PM 52.0 °F - 48.9 °F 89% 30.09 in 10.0 mi SSW 9.2 mph - N/A   Overcast
2:53 PM 50.0 °F - 48.0 °F 93% 30.09 in 10.0 mi SSW 10.4 mph - N/A   Overcast
3:11 PM 50.0 °F - 48.2 °F 94% 30.09 in 10.0 mi South 10.4 mph - N/A   Overcast
3:30 PM 48.2 °F - 48.2 °F 100% 30.09 in 1.0 mi SSW 9.2 mph - N/A   Overcast
3:48 PM 48.2 °F - 48.2 °F 100% 30.08 in 0.5 mi South 8.1 mph - N/A Fog Fog
3:53 PM 48.9 °F - 48.0 °F 97% 30.08 in 0.5 mi SSW 10.4 mph - N/A Fog Fog
4:53 PM 48.0 °F - 46.9 °F 96% 30.07 in 0.8 mi SSW 9.2 mph - N/A   Mist
5:18 PM 48.2 °F - 46.4 °F 93% 30.07 in 1.0 mi SSW 8.1 mph - N/A   Overcast
5:50 PM 48.2 °F - 46.4 °F 93% 30.06 in 2.5 mi SSW 8.1 mph - N/A   Overcast
5:53 PM 48.0 °F - 46.9 °F 96% 30.06 in 3.0 mi SSW 9.2 mph - N/A   Overcast
6:07 PM 48.2 °F - 46.4 °F 93% 30.06 in 1.8 mi SSW 9.2 mph - N/A   Overcast
6:21 PM 48.2 °F - 48.2 °F 100% 30.06 in 0.8 mi SW 8.1 mph - N/A   Mist
6:53 PM 50.0 °F - 48.9 °F 96% 30.05 in 0.5 mi SSW 9.2 mph - N/A Fog Fog
7:53 PM 50.0 °F - 48.9 °F 96% 30.05 in 0.5 mi SW 9.2 mph - N/A Fog Fog
8:31 PM 50.0 °F - 48.2 °F 94% 30.05 in 0.2 mi SSW 9.2 mph - N/A Fog Fog
8:53 PM 50.0 °F - 48.9 °F 96% 30.04 in 0.5 mi SSW 6.9 mph - N/A Fog Fog
9:31 PM 51.8 °F - 50.0 °F 94% 30.04 in 1.2 mi SW 5.8 mph - N/A   Overcast
9:53 PM 51.1 °F - 50.0 °F 96% 30.04 in 1.0 mi SW 5.8 mph - N/A   Overcast
10:16 PM 51.8 °F - 51.8 °F 100% 30.03 in 0.8 mi SSW 8.1 mph - 0.01 in   Overcast
10:41 PM 51.8 °F - 51.8 °F 100% 30.04 in 1.0 mi SW 8.1 mph - 0.01 in   Overcast
10:53 PM 52.0 °F - 51.1 °F 97% 30.03 in 1.0 mi SW 9.2 mph - 0.01 in   Overcast
11:03 PM 51.8 °F - 51.8 °F 100% 30.03 in 3.0 mi WSW 9.2 mph - N/A   Overcast
11:53 PM 52.0 °F - 51.1 °F 97% 30.02 in 10.0 mi SW 8.1 mph - N/A   Overcast